Total_Precipitation_Accumulation
1.22 1.43 1.65 2.04 2.28 2.58 2.91 3.05 3.33 3.56 3.72 3.87 3.89 3.67 3.40 3.17 2.98 2.92 2.86 2.65 2.48 2.39 2.25 2.10 2.11 2.03 1.86 1.68 1.66 1.66 1.54 1.39 1.35 1.30 1.09 0.93 0.83 0.79 0.74 0.76 0.77 0.69 0.63
1.07 1.23 1.48 1.82 2.02 2.21 2.44 2.67 2.90 3.18 3.39 3.46 3.51 3.59 3.60 3.35 3.04 2.94 2.94 2.89 2.79 2.63 2.42 2.26 2.19 2.17 2.10 1.89 1.75 1.79 1.77 1.64 1.59 1.59 1.54 1.34 1.13 0.89 0.77 0.77 0.78 0.76 0.75
0.96 1.06 1.25 1.63 1.84 1.95 2.13 2.34 2.59 2.76 2.90 3.23 3.51 3.57 3.78 3.71 3.27 2.90 2.73 2.83 2.91 2.90 2.70 2.47 2.41 2.36 2.34 2.23 2.06 1.96 1.93 1.89 1.78 1.77 1.94 1.74 1.40 1.06 0.88 0.85 0.83 0.81 0.84
0.97 1.05 1.14 1.36 1.59 1.68 1.85 2.09 2.40 2.63 2.68 2.95 3.18 3.18 3.11 3.17 2.97 2.80 2.77 2.85 2.89 2.94 2.93 2.76 2.55 2.48 2.45 2.38 2.43 2.43 2.29 2.19 1.99 1.84 1.72 1.67 1.51 1.43 1.20 0.98 0.95 0.91 0.87
0.91 1.03 1.09 1.16 1.34 1.46 1.55 1.78 2.14 2.44 2.59 2.67 2.83 3.00 3.01 3.00 3.05 3.01 2.94 2.84 2.73 2.78 2.88 2.85 2.69 2.44 2.32 2.26 2.32 2.41 2.46 2.33 2.13 1.96 1.83 1.73 1.53 1.43 1.46 1.27 1.08 1.05 0.93
0.89 0.96 0.99 1.03 1.20 1.29 1.29 1.47 1.72 2.13 2.49 2.60 2.63 2.71 2.77 2.75 2.84 2.96 2.94 2.90 2.75 2.63 2.63 2.63 2.55 2.45 2.31 2.20 2.23 2.35 2.43 2.46 2.39 2.18 1.97 1.86 1.73 1.50 1.50 1.45 1.30 1.28 1.16
0.87 0.91 0.95 1.05 1.12 1.20 1.19 1.26 1.39 1.71 2.13 2.38 2.41 2.44 2.52 2.56 2.54 2.68 2.85 2.84 2.71 2.53 2.50 2.57 2.49 2.40 2.28 2.23 2.20 2.23 2.23 2.27 2.33 2.27 2.10 1.90 1.74 1.62 1.66 1.70 1.58 1.48 1.35
0.79 0.82 0.84 0.91 0.95 1.00 1.08 1.18 1.25 1.38 1.64 1.91 2.09 2.22 2.31 2.36 2.27 2.27 2.52 2.66 2.55 2.44 2.40 2.48 2.45 2.38 2.32 2.26 2.21 2.17 2.10 2.10 2.12 2.08 2.01 1.89 1.72 1.62 1.66 1.78 1.93 1.91 1.64
0.66 0.69 0.70 0.75 0.77 0.81 0.90 1.01 1.05 1.12 1.30 1.54 1.76 1.96 2.07 2.18 2.21 2.14 2.21 2.48 2.52 2.36 2.27 2.30 2.32 2.28 2.23 2.21 2.19 2.14 2.02 1.94 1.94 1.88 1.82 1.77 1.65 1.57 1.56 1.64 1.84 2.15 2.11
0.56 0.61 0.64 0.69 0.72 0.75 0.71 0.74 0.87 1.00 1.12 1.24 1.48 1.66 1.83 1.95 2.05 2.11 2.11 2.18 2.28 2.28 2.17 2.11 2.13 2.15 2.12 2.09 2.14 2.06 1.95 1.91 1.82 1.77 1.73 1.67 1.60 1.58 1.60 1.66 1.72 1.87 2.04
0.54 0.57 0.59 0.63 0.72 0.75 0.68 0.64 0.74 0.87 0.96 1.02 1.21 1.37 1.50 1.67 1.80 1.90 1.94 1.96 2.02 2.11 2.16 2.08 2.07 2.10 2.10 2.05 2.06 2.05 1.98 1.89 1.78 1.71 1.67 1.63 1.58 1.59 1.56 1.60 1.68 1.73 1.81
0.58 0.57 0.57 0.60 0.68 0.76 0.75 0.68 0.70 0.76 0.85 0.92 1.02 1.21 1.29 1.41 1.58 1.70 1.74 1.76 1.80 1.85 1.90 1.93 1.96 1.97 1.96 1.94 1.91 1.92 1.90 1.86 1.76 1.70 1.69 1.65 1.64 1.73 1.74 1.73 1.71 1.69 1.66
0.60 0.59 0.59 0.61 0.66 0.75 0.80 0.72 0.71 0.72 0.77 0.88 0.91 1.05 1.18 1.24 1.31 1.43 1.52 1.59 1.66 1.72 1.76 1.76 1.85 1.88 1.84 1.86 1.85 1.81 1.81 1.82 1.78 1.73 1.72 1.69 1.71 1.78 1.78 1.75 1.72 1.64 1.59
0.61 0.62 0.67 0.68 0.71 0.74 0.80 0.75 0.74 0.71 0.70 0.81 0.87 0.90 1.06 1.17 1.20 1.23 1.30 1.36 1.42 1.51 1.54 1.58 1.60 1.67 1.71 1.75 1.82 1.87 1.83 1.82 1.80 1.77 1.72 1.66 1.64 1.62 1.61 1.59 1.55 1.55 1.56
0.55 0.58 0.61 0.68 0.71 0.74 0.80 0.79 0.77 0.75 0.69 0.73 0.82 0.86 0.92 1.02 1.13 1.19 1.24 1.30 1.33 1.38 1.43 1.48 1.49 1.50 1.54 1.63 1.72 1.83 1.89 1.88 1.86 1.83 1.76 1.64 1.58 1.50 1.47 1.44 1.40 1.42 1.53
0.52 0.53 0.52 0.58 0.62 0.71 0.80 0.86 0.85 0.80 0.75 0.72 0.75 0.82 0.89 0.92 0.98 1.07 1.17 1.22 1.30 1.36 1.40 1.49 1.54 1.55 1.58 1.80 1.88 1.85 1.86 1.88 1.83 1.74 1.60 1.52 1.51 1.45 1.48 1.48 1.45 1.49 1.62
0.45 0.46 0.48 0.54 0.57 0.63 0.73 0.82 0.86 0.83 0.80 0.77 0.75 0.78 0.85 0.93 0.98 1.00 1.09 1.23 1.31 1.45 1.54 1.58 1.66 1.67 1.68 1.76 1.66 1.70 1.68 1.71 1.72 1.64 1.51 1.42 1.30 1.29 1.19 1.30 1.40 1.43 1.51
0.41 0.40 0.43 0.45 0.47 0.52 0.61 0.73 0.79 0.81 0.82 0.82 0.83 0.84 0.85 0.96 1.06 1.08 1.12 1.22 1.32 1.45 1.59 1.63 1.67 1.67 1.66 1.66 1.53 1.52 1.39 1.39 1.43 1.45 1.43 1.37 1.31 1.24 1.21 1.24 1.32 1.22 1.17
0.44 0.43 0.44 0.46 0.46 0.49 0.58 0.69 0.76 0.78 0.80 0.84 0.87 0.90 0.92 1.02 1.13 1.13 1.15 1.20 1.26 1.34 1.41 1.47 1.50 1.45 1.44 1.45 1.37 1.36 1.26 1.25 1.21 1.20 1.25 1.31 1.25 1.33 1.43 1.37 1.32 1.16 1.03
0.40 0.45 0.47 0.46 0.50 0.54 0.58 0.68 0.79 0.88 0.93 0.95 0.97 1.00 1.08 1.19 1.23 1.20 1.19 1.15 1.15 1.16 1.14 1.15 1.14 1.13 1.12 1.20 1.17 1.17 1.08 1.11 1.10 1.10 1.15 1.29 1.26 1.36 1.45 1.31 1.26 1.18 1.04
0.42 0.44 0.49 0.52 0.56 0.60 0.62 0.66 0.74 0.91 1.01 1.05 1.05 1.06 1.12 1.19 1.22 1.18 1.12 1.09 1.05 1.04 1.00 0.98 0.97 0.94 0.95 1.01 1.01 1.04 0.98 0.99 1.03 1.06 1.04 1.08 1.32 1.40 1.40 1.28 1.13 1.14 1.15
0.40 0.46 0.53 0.57 0.57 0.64 0.71 0.72 0.77 0.86 0.93 0.99 1.00 1.00 1.02 1.06 1.12 1.13 1.08 1.03 1.03 1.02 1.00 0.99 1.02 0.99 0.97 0.97 0.97 1.03 1.06 1.08 1.02 0.98 0.93 1.00 1.25 1.24 1.20 1.14 1.15 1.27 1.19
0.41 0.48 0.58 0.63 0.64 0.66 0.72 0.77 0.75 0.76 0.81 0.88 0.93 0.92 0.89 0.90 0.96 1.01 1.04 1.04 1.04 1.03 1.01 1.00 1.02 1.02 0.98 1.02 1.08 1.05 1.12 1.14 1.01 0.97 1.10 1.14 1.11 1.05 1.03 1.10 1.15 1.12 1.07
0.41 0.48 0.53 0.59 0.62 0.62 0.65 0.68 0.65 0.64 0.67 0.73 0.81 0.84 0.85 0.85 0.85 0.88 0.96 1.01 1.05 1.04 0.99 0.99 1.02 0.99 0.93 0.95 1.00 1.02 1.05 1.10 1.06 1.08 1.13 1.09 1.00 0.94 0.96 1.04 1.06 1.03 1.07
0.43 0.48 0.54 0.59 0.62 0.59 0.59 0.60 0.59 0.59 0.63 0.65 0.69 0.73 0.80 0.85 0.88 0.90 0.96 1.04 1.07 1.14 1.14 1.04 1.00 1.01 0.99 1.00 1.12 1.14 1.09 1.15 1.19 1.17 1.02 0.94 0.92 0.91 0.89 0.90 0.92 0.97 1.06
0.45 0.47 0.50 0.55 0.62 0.61 0.59 0.58 0.58 0.60 0.65 0.69 0.69 0.73 0.80 0.84 0.86 0.88 0.94 1.03 1.07 1.11 1.12 1.12 1.08 1.02 1.06 1.11 1.15 1.19 1.25 1.30 1.30 1.18 1.04 0.96 0.88 0.85 0.82 0.82 0.87 0.91 1.00